Weather History for Tegucigalpa, Honduras

Change the Weather History Date:

Friday, March 1, 2013

  Actual Average Record
Temperature  
Mean Temperature 74 °F -  
Max Temperature 88 °F 83 °F 95 °F (1998)
Min Temperature 59 °F 60 °F 51 °F (2009)
Cooling Degree Days 8    
Growing Degree Days 24 (Base 50)    
Moisture  
Dew Point 61 °F    
Average Humidity 75    
Maximum Humidity 100    
Minimum Humidity 33    
Precipitation  
Precipitation 0.00 in 0.01 in - ()
Sea Level Pressure  
Sea Level Pressure 29.99 in    
Wind  
Wind Speed 7 mph ()    
Max Wind Speed 20 mph    
Max Gust Speed -    
Visibility 6.2 miles    
Events      
Averages and records for this station are not official NWS values.
T = Trace of Precipitation, MM = Missing Value Source: Averaged Metar Reports

Daily Weather History Graph

Daily Weather History Graph

Search for Another Location

Airport:

Trip Planner

Search our weather history database for the weather conditions in past years. The results will help you decide how hot, cold, wet, or windy it might be!

Date:

Astronomy

Mar. 01, 2013 Rise Set
Actual Time 6:05 AM CST 5:57 PM CST
Civil Twilight 5:43 AM CST 6:18 PM CST
Nautical Twilight 5:18 AM CST 6:43 PM CST
Astronomical Twilight 4:54 AM CST 7:08 PM CST
Moon 9:36 PM CST (3/1) 8:39 AM CST (3/1)
Length of Visible Light 12h 34m
Length of Day
11h 52m
Waning Gibbous, 83% of the Moon is Illuminated
Mar 1
Waning Gibbous
Mar 4
Last Quarter
Mar 11
New
Mar 19
First Quarter
Mar 27
Full

Hourly Weather History & Observations

Time (CST) Temp. Heat Index Dew Point Humidity Pressure Visibility Wind Dir Wind Speed Gust Speed Precip Events Conditions
12:00 AM 69 °F - 63 °F 76% 29.89 in 6 mi North 4.6 mph - -   Smoke
12:00 AM 69.8 °F - 62.6 °F 78% 30.04 in 6.2 mi North 6.9 mph - N/A   Mostly Cloudy
1:00 AM 66.2 °F - 62.6 °F 88% 30.04 in - North 6.9 mph - N/A   Clear
3:00 AM 62 °F - 61 °F 94% 29.89 in 6 mi Calm Calm - -   Smoke
3:00 AM 62.6 °F - 60.8 °F 94% 30.01 in - Calm Calm - N/A   Clear
4:00 AM 60.8 °F - 60.8 °F 100% 30.01 in 6.2 mi Calm Calm - N/A   Scattered Clouds
5:00 AM 62.6 °F - 62.6 °F 100% 30.04 in - Calm Calm - N/A   Clear
6:00 AM 59 °F - 59 °F 100% 29.95 in 6 mi Calm Calm - -   Smoke
6:00 AM 59.0 °F - 59.0 °F 100% 30.04 in 6.2 mi Calm Calm - N/A   Mostly Cloudy
7:00 AM 60.8 °F - 60.8 °F 100% 30.06 in 5.0 mi Calm Calm - N/A   Scattered Clouds
8:00 AM 68.0 °F - 62.6 °F 83% 30.06 in 6.2 mi North 9.2 mph - N/A   Mostly Cloudy
9:00 AM 72 °F - 63 °F 67% 29.90 in 6 mi North 11.5 mph - -   Smoke
9:00 AM 71.6 °F - 62.6 °F 73% 30.09 in 6.2 mi North 11.5 mph - N/A   Mostly Cloudy
10:00 AM 77.0 °F - 60.8 °F 57% 30.09 in 6.2 mi North 13.8 mph - N/A   Mostly Cloudy
11:00 AM 80.6 °F 81.5 °F 60.8 °F 51% 30.06 in 6.2 mi NNW 16.1 mph - N/A   Mostly Cloudy
12:00 PM 84.2 °F 84.4 °F 60.8 °F 45% 30.01 in 6.2 mi North 11.5 mph - N/A   Mostly Cloudy
1:00 PM 86.0 °F 85.4 °F 59.0 °F 40% 29.98 in 6.2 mi North 16.1 mph - N/A   Scattered Clouds
2:00 PM 87.8 °F 86.1 °F 55.4 °F 33% 29.95 in 6.2 mi North 16.1 mph - N/A   Mostly Cloudy
3:00 PM - - 56 °F % 29.65 in 7 mi NNE 6.9 mph - -   Smoke
3:00 PM 87.8 °F 86.1 °F 55.4 °F 33% 29.92 in 6.2 mi NNE 15.0 mph - N/A   Mostly Cloudy
4:00 PM 84.2 °F 84.4 °F 60.8 °F 45% 29.92 in 6.2 mi North 19.6 mph - N/A   Mostly Cloudy
5:00 PM 77.0 °F - 62.6 °F 61% 29.95 in 6.2 mi North 19.6 mph - N/A   Scattered Clouds
6:00 PM 71 °F - 62 °F 67% 29.81 in 7 mi North 11.5 mph - -   Smoke
6:00 PM 71.6 °F - 62.6 °F 73% 29.98 in 6.2 mi North 11.5 mph - N/A   Scattered Clouds
7:00 PM 69.8 °F - 62.6 °F 78% 30.04 in 6.2 mi NNW 9.2 mph - N/A   Mostly Cloudy
8:00 PM 68.0 °F - 62.6 °F 83% 30.06 in 6.2 mi North 12.7 mph - N/A   Mostly Cloudy
9:00 PM 67 °F - 62 °F 78% 29.95 in 6 mi North 11.5 mph - -   Smoke
9:00 PM 66.2 °F - 62.6 °F 88% 30.09 in 6.2 mi North 11.5 mph - N/A   Mostly Cloudy
10:00 PM 66.2 °F - 62.6 °F 88% 30.09 in 6.2 mi North 6.9 mph - N/A   Mostly Cloudy
11:00 PM 66.2 °F - 62.6 °F 88% 30.09 in 6.2 mi North 11.5 mph - N/A   Mostly Cloudy